Weather in Pistsovo

Russia / Ivanovo Oblast     57°10′45″N   40°31′52″E
temp.,
°C
wind,
m/s
gust,
m/s
humid.,
%
clouds,
%
prec.,
mm/h
press.,
hPa
HPBL,
m
7 march, sun
sun700:00−15ssw44930 0.0 101162
03:00−14s510939 0.0 1008151
06:00−10s7138896 0.0 1003428
09:00−8ssw8149398 0.4 998790
12:00−6ssw81492100 0.8 994953
15:00−3ssw71294100 1.9 991857
18:00−6wnw4878100 1.1 991200
21:00−10w1273100 1.1 99121
8 march, mon
mon800:00−11sw2372100 0.0 99121
03:00−12w349399 0.0 99392
06:00−14wsw239369 0.0 99323
09:00−11nnw009565 0.0 99451
12:00−8n349091 0.1 996421
15:00−7nnw578594 0.1 999880
18:00−9nnw51094100 0.2 1002360
21:00−12nnw4996100 0.3 1006239
9 march, tue
tue900:00−14nnw489694 0.1 1008239
03:00−18nnw489887 0.1 1010163
06:00−22nnw469989 0.0 1012115
09:00−21nnw469786 0.1 1014252
12:00−17nnw459391 0.0 1015381
15:00−15nnw469096 0.1 1017589
18:00−18nnw3796100 0.1 1018144
21:00−22nnw4898100 0.1 1020154
10 march, wed
wed1000:00−25nnw359979 0.0 102279
03:00−27nnw349845 0.0 102353
06:00−28nnw34980 0.0 102456
09:00−25n35950 0.0 1026191
12:00−19nnw34840 0.0 1026391
15:00−16nw35830 0.0 1026474
18:00−18w34920 0.0 102537
21:00−21wnw34960 0.0 102678
11 march, thu
thu1100:00−22wnw45950 0.0 102679
03:00−22wnw34920 0.0 102765
06:00−23w34895 0.0 102744
09:00−19w348420 0.0 1027132
12:00−12wsw34740 0.0 1026310
15:00−9ssw34730 0.0 1025432
18:00−13s46870 0.0 102488
21:00−14s512933 0.0 1023280